Location: Gloden
(48.4833°N, 15.3167°E)
Time: 11:11:08
(UTC+00:00)

USA 238 - Pass Details

Date: 15 December 2019
Orbit: 1023 x 1189 km, 63.4° (Epoch: 20 January)

Event Time Altitude Azimuth Distance (km) Brightness Sun altitude
Rises 05:40:29 0° 233° (SW) 3,776 6.3 -9.9°
Reaches altitude 10° 05:43:06 10° 237° (WSW) 2,839 5.6 -9.5°
Maximum altitude 05:49:43 62° 318° (NW) 1,188 3.7 -8.5°
Drops below altitude 10° 05:56:39 10° 39° (NE) 2,954 6.2 -7.5°
Sets 05:59:25 0° 43° (NE) 3,939 6.9 -7.1°
